TimeEST,TemperatureF,Dew PointF,Humidity,Sea Level PressureIn,VisibilityMPH,Wind Direction,Wind SpeedMPH,Gust SpeedMPH,PrecipitationIn,Events,Conditions,WindDirDegrees,DateUTC
12:53 AM,50.0,25.0,38,30.19,10.0,NNE,9.2,-,N/A,,Clear,30,2013-02-07 05:53:00
1:53 AM,48.9,25.0,39,30.19,10.0,NNE,11.5,-,N/A,,Clear,30,2013-02-07 06:53:00
2:53 AM,48.0,23.0,37,30.19,10.0,NE,12.7,-,N/A,,Clear,40,2013-02-07 07:53:00
3:53 AM,48.0,23.0,37,30.20,10.0,NE,10.4,-,N/A,,Clear,40,2013-02-07 08:53:00
4:53 AM,46.9,23.0,39,30.20,10.0,NNE,19.6,23.0,N/A,,Clear,20,2013-02-07 09:53:00
5:53 AM,46.9,23.0,39,30.20,10.0,NE,15.0,-,N/A,,Clear,40,2013-02-07 10:53:00
6:53 AM,46.9,24.1,41,30.22,10.0,NE,12.7,-,N/A,,Clear,40,2013-02-07 11:53:00
7:18 AM,46.4,24.8,43,30.22,10.0,NE,13.8,-,N/A,,Mostly Cloudy,40,2013-02-07 12:18:00
7:53 AM,46.9,24.1,41,30.22,10.0,NE,13.8,-,N/A,,Overcast,40,2013-02-07 12:53:00
8:53 AM,46.0,26.1,46,30.22,10.0,NE,16.1,25.3,N/A,,Overcast,40,2013-02-07 13:53:00
9:53 AM,46.9,28.0,48,30.22,10.0,NE,16.1,24.2,N/A,,Overcast,50,2013-02-07 14:53:00
10:53 AM,46.9,30.0,52,30.20,10.0,NE,16.1,24.2,N/A,,Overcast,40,2013-02-07 15:53:00
11:13 AM,46.4,32.0,57,30.18,10.0,NNE,13.8,-,N/A,,Overcast,30,2013-02-07 16:13:00
11:53 AM,45.0,36.0,71,30.17,10.0,NE,17.3,-,0.00,Rain,Light Rain,40,2013-02-07 16:53:00
12:53 PM,44.1,37.0,76,30.16,9.0,NE,12.7,-,0.01,Rain,Light Rain,40,2013-02-07 17:53:00
1:53 PM,43.0,39.0,86,30.14,6.0,NE,10.4,19.6,0.03,Rain,Light Rain,50,2013-02-07 18:53:00
2:31 PM,42.8,39.2,87,30.11,6.0,NE,12.7,-,0.04,Rain,Light Rain,40,2013-02-07 19:31:00
2:53 PM,42.1,37.9,85,30.11,6.0,NE,13.8,-,0.06,Rain,Light Rain,40,2013-02-07 19:53:00
3:53 PM,42.1,39.0,89,30.09,4.0,NE,15.0,-,0.06,Rain,Rain,40,2013-02-07 20:53:00
4:22 PM,42.8,39.2,87,30.07,3.0,NE,15.0,-,0.03,Rain,Light Rain,40,2013-02-07 21:22:00
4:53 PM,42.1,39.0,89,30.06,4.0,NE,18.4,-,0.04,Rain,Light Rain,40,2013-02-07 21:53:00
5:53 PM,42.1,39.9,92,30.04,4.0,NE,11.5,20.7,0.05,Rain,Rain,40,2013-02-07 22:53:00
6:53 PM,42.1,39.9,92,30.04,4.0,NE,16.1,24.2,0.09,Rain,Rain,40,2013-02-07 23:53:00
7:53 PM,42.1,39.9,92,30.04,5.0,NE,16.1,20.7,0.10,Rain,Rain,50,2013-02-08 00:53:00
8:53 PM,42.1,39.0,89,30.03,6.0,NE,15.0,28.8,0.08,Rain,Light Rain,50,2013-02-08 01:53:00
9:53 PM,42.1,39.9,92,30.02,9.0,NE,15.0,21.9,0.02,Rain,Light Rain,40,2013-02-08 02:53:00
10:53 PM,43.0,39.9,89,30.00,10.0,NNE,15.0,21.9,0.00,,Overcast,30,2013-02-08 03:53:00
11:53 PM,43.0,39.9,89,29.99,10.0,NE,13.8,20.7,N/A,,Overcast,40,2013-02-08 04:53:00